Find Starlink 30249

NORAD ID: 57618 Int'l Des: 2023-119 Owner: SPXS Country: US Constellation: starlink operational
LEOCIRCULAR

現在のビュー

3D地球を読み込み中...

About Starlink 30249

Starlink 30249 (NORAD 57618) is a starlink constellation satellite (v2 mini) launched Aug 11, 2023 by SPXS of US. It operates in LEO, CIRCULAR orbit with a mass of 730.00 kg.

次回通過

Passes for default location (London). Set your location on the main map for personalized predictions.

高度履歴

Loading altitude history...

軌道要素

1 57618U 23119S 26252.91093055 -.00001152 00000-0 -32366-4 0 9997
2 57618 43.0016 120.9442 0001095 273.6088 86.4638 15.27569714171263
Epoch: Sep 9, 2026 • Age: 9 hours

現在のステータス

高度 495.6 km
遠地点 / 近地点 N/A
速度 7.62 km/s
衛星直下点 -42.91°S, 56.65°W
打ち上げ日 Aug 11, 2023
運用期間 3 years
タイプ internet

技術仕様

分類 Payload
質量 730.00 kg
乾燥質量 700.00 kg
総質量 730.00 kg
長さ 0.30 m
直径 4.10 m
スパン 29.00 m
形状 Box + pan
製造者 SPXS
バスタイプ Starlink V2M
フェーズステータス In Orbit
所有者/国 SPXS/US

Most Searched